Regional Weather Roundup
Issued by NWS

Home | Current Version | Previous Version | Graphics & Text | Print | Product List | Glossary On
Versions: 1 2 3 4 5 6 7 8 9 10 11 12 13 14 15 16 17 18 19 20 21 22 23 24 25 26 27 28 29 30 31 32 33 34 35 36 37 38 39 40 41 42 43 44 45 46 47 48 49 50
000
ASUS43 KIND 220909
RWRIN

WEATHER ROUNDUP FOR INDIANA
NATIONAL WEATHER SERVICE INDIANAPOLIS IN
500 AM EDT FRI SEP 22 2017

NOTE: "FAIR" INDICATES FEW OR NO CLOUDS BELOW 12,000 FEET WITH NO
SIGNIFICANT WEATHER AND/OR OBSTRUCTIONS TO VISIBILITY.

* - STATION DOES NOT REPORT WEATHER SUCH AS PRECIPITATION OR FOG.

+ - STATION NOT QUALITY CONTROLLED BY THE NATIONAL WEATHER SERVICE.
    USE DATA WITH CAUTION...ESPECIALLY DEWPOINT AND RELATIVE
    HUMIDITY OBSERVATIONS.

INZ001>003-010>013-019-020-221000-
NORTHWEST INDIANA

CITY           SKY/WX    TMP DP  RH WIND       PRES   REMARKS
GARY /AIRPORT/ CLEAR     68  67  96 CALM      30.06R FOG
KNOX *+        CLEAR     66  64  94 CALM      30.07R
LA PORTE +     CLEAR     66  65  95 CALM      30.08R
MICHIGAN CITY+ FOG       68  68 100 CALM      30.07R VSB 3/4
MONTICELLO +   PTCLDY    69  67  95 CALM      30.06R
RENSSELAER +   CLEAR     68  63  83 CALM      30.07R
VALPARAISO     CLEAR     68  67  96 CALM      30.07R

$$

LMZ046-743>745-221000-
SOUTHERN LAKE MICHIGAN

STATION/POSITION TIME  TEMP    WIND        PRES    WAVE
                       AIR SEA DIR/SP/G            HT
                 (UTC) (F)     (DEG/KT/KT) (MB)    (FT)
BURNS HARBOR     0840   76     190/  8/  9 1017.9S
MICHIGAN CITY    0840   78     160/  8/ 11   N/A
5NW MICH CITY    0900   72 70  150/  4/  4   N/A

$$

INZ004-005-014>016-021>024-221000-
NORTH CENTRAL INDIANA

CITY           SKY/WX    TMP DP  RH WIND       PRES   REMARKS
GOSHEN         CLEAR     68  65  90 CALM      30.08S FOG
LOGANSPORT +   CLEAR     64  64 100 CALM      30.09R
PERU/GRISSOM   PTCLDY    70  67  92 CALM      30.07S
SOUTH BEND     CLEAR     71  71 100 E5        30.08R
WARSAW +       CLEAR     68  68 100 CALM      30.09R FOG

$$

INZ006>009-017-018-025>027-221000-
NORTHEAST INDIANA

CITY           SKY/WX    TMP DP  RH WIND       PRES   REMARKS
AUBURN +       CLEAR     68  64  88 CALM      30.10R FOG
FORT WAYNE     PTCLDY    67  64  90 SE5       30.09R
HUNTINGTON +   CLEAR     67  66  96 CALM      30.09R FOG
KENDALLVILLE + CLEAR     68  68 100 CALM      30.10S FOG

$$

INZ028-029-035-036-043>045-051>053-221000-
WEST CENTRAL INDIANA

CITY           SKY/WX    TMP DP  RH WIND       PRES   REMARKS
GREENCASTLE +  CLEAR     66  66 100 CALM      30.09R FOG
LAFAYETTE      PTCLDY    69  68  96 CALM      30.06R
TERRE HAUTE    MOCLDY    71  67  87 CALM      30.07R

$$

INZ030>032-037>040-046>048-054>057-064-065-221000-
CENTRAL INDIANA

CITY           SKY/WX    TMP DP  RH WIND       PRES   REMARKS
CP ATTERBURY + CLEAR     64  63  94 CALM      30.08S FOG
FISHERS *+     CLEAR     66  66 100 CALM      30.09R
FRANKFORT +    CLOUDY    70  67  92 CALM      30.10R
GREENWOOD *+   CLEAR     72  71  98 CALM      30.08S
INDIANAPOLIS   CLEAR     74  68  81 NE3       30.08R
-EAGLE CREEK   CLEAR     70  68  93 CALM      30.08R
KOKOMO +       CLEAR     68  67  96 CALM      30.09S
MT COMFORT *+  CLEAR     66  64  94 CALM      30.09S
SHELBYVILLE    CLEAR     68  64  87 E5        30.07S
ZIONSVILLE +   CLEAR     64  64 100 CALM      30.10R FOG

$$

INZ033-034-041-042-049-050-058-059-221000-
EAST CENTRAL INDIANA

CITY           SKY/WX    TMP DP  RH WIND       PRES   REMARKS
MUNCIE         CLEAR     68  65  90 CALM      30.09S
RICHMOND +     CLEAR     68  68 100 CALM      30.11S FOG

$$

INZ060-061-067>069-081>083-085>088-221000-
SOUTHWEST INDIANA

CITY           SKY/WX    TMP DP  RH WIND       PRES   REMARKS
EVANSVILLE     CLEAR     70  68  93 CALM      30.06R FOG
HUNTINGBURG +  CLEAR     68  68 100 CALM      30.07R FOG
WASHINGTON +   CLEAR     66  65  94 CALM      30.06R FOG

$$

INZ062-063-066-070>080-084-089>092-221000-
SOUTH CENTRAL AND SOUTHEAST INDIANA

CITY           SKY/WX    TMP DP  RH WIND       PRES   REMARKS
BEDFORD +      CLEAR     68  66  94 CALM      30.07R FOG
BLOOMINGTON    CLEAR     67  64  90 CALM      30.08R FOG
MADISON *+     PTCLDY    68  68 100 CALM      30.10S
NORTH VERNON + CLEAR     64  64 100 CALM      30.09R FOG
SEYMOUR +      FOG       66  66 100 CALM      30.07  VSB 1/2

$$





USA.gov is the U.S. government's official web portal to all federal, state and local government web resources and services.